Tracking 31027 objects as of 19-Jul-2025
HD Live streaming from Space Station
objects crossing your sky now

FENGYUN 1C DEB

Track FENGYUN 1C DEB now!
10-day predictions


NORAD ID: 32106
Int'l Code: 1999-025CQY
Perigee: 736.4 km
Apogee: 902.8 km
Inclination: 101.5 °
Period: 101.1 minutes
Semi major axis: 7190 km
RCS: 0.0084 m2 (small)
Launch date: May 10, 1999
Source: People's Republic of China (PRC)
Launch site: Taiyaun Space Center, China (TSC)

Note: This is SATELLITE DEBRIS
Your satellite tracking list
OBJECT A
Track 1 satellite(s)




NASA's NSSDC Master Catalog

Two Line Element Set (TLE):
1 32106U 99025CQY 25196.03998569  .00004995  00000-0  20625-2 0  9993
2 32106 101.4598 121.7263 0115680  79.5321 281.8858 14.23821467672454
Source of the keplerian elements: AFSPC